Pagina principale
METAR-TAF:

METAR-TAF

Aeroporti :

Germiston, Sudafrica

latitudine: 26-14-33S, longitudine: 028-09-04E, altezza: 1671 m

Osservazione

Il bollettino è stato emesso 10 ore e 46 minuti fa, alle 08:00 UTC
Vento 14 kt da ovest/sud-ovest
Temperature 16°C
Umidità 18%
Pressione 1027 hPa
Visibilità 10 km o più
nessuna nube inferiore a 1500 m e nessun cumulonembo

METAR: FAGM 190800Z 24014KT CAVOK 16/M08 Q1027

Ora: 20:46 (18:46 UTC)


TAF: mancante

Osservazioni e previsioni meteorologiche di più di 4000 aeroporti (messaggi METAR e TAF).

Le stazioni disponibili sono rappresentate dai dischi gialli e rossi sulla carta.

Puntare il mouse per vedere il nome della stazione.

Clicca sopra per visualizzare le osservazioni e previsioni meteorologiche.

Per cambiare la mappa : fare clic sui pulsanti verdi con una croce nera per ingrandire, il pulsante verde con un trattino per diminuire, o sulla freccia verde per le mappe adiacenti.


METAR-TAF: